Regional Weather Roundup
Issued by NWS Mt. Holly, NJ

Home | Current Version | Previous Version | Text Only | Print | Product List | Glossary On
Versions: 1 2 3 4 5 6 7 8 9 10 11 12 13 14 15 16 17 18 19 20 21 22 23 24 25 26 27 28
000
ASUS41 KPHI 251112
RWRPHI

REGIONAL WEATHER ROUNDUP
NATIONAL WEATHER SERVICE MOUNT HOLLY NJ
700 AM EDT THU MAY 25 2017

NOTE:  "FAIR" INDICATES FEW OR NO CLOUDS BELOW 12,000 FEET WITH NO
SIGNIFICANT WEATHER AND/OR OBSTRUCTIONS TO VISIBILITY.

 * = STATION DOES NOT REPORT PRECIPITATION (E.G. RAIN, SNOW, ETC.)
        OR FOG.

NJZ015>026-251200-
SOUTHERN NEW JERSEY

CITY           SKY/WX    TMP DP  RH WIND       PRES   REMARKS
POMONA         LGT RAIN  56  54  93 E16       29.61F FOG
WILDWOOD*      LGT RAIN  57  55  94 E14G21    29.59R FOG
MILLVILLE      LGT RAIN  55  55 100 E13       29.59F FOG
WRIGHTSTOWN    LGT RAIN  54  52  94 E12G21    29.62F
MOUNT HOLLY    RAIN      54  53  97 VRB7G16   29.64F FOG
TRENTON        LGT RAIN  55  54  96 E13G22    29.64F

$$
NJZ001>014-251200-
NORTHERN NEW JERSEY

CITY           SKY/WX    TMP DP  RH WIND       PRES   REMARKS
SUSSEX         LGT RAIN  55  53  93 NE12      29.71F
ANDOVER*         N/A     55  52  89 VRB3      29.68F
NEWARK         LGT RAIN  57  55  93 NE10      29.70S
TETERBORO      LGT RAIN  56  54  93 E9        29.70F
CALDWELL       LGT RAIN  57  54  89 E10       29.71F
SOMERVILLE     RAIN      57  54  89 E7        29.65F FOG
ALLAIRE*       LGT RAIN  53  52  96 E16G23    29.68F FOG
TOMS RIVER*    LGT RAIN  54  53  97 E9G18     29.66F FOG

$$
PAZ043-044-047-054-055-060>062-066>071-251200-
EASTERN PENNSYLVANIA

CITY           SKY/WX    TMP DP  RH WIND       PRES   REMARKS
PHILADELPHIA   LGT RAIN  55  53  93 E17       29.61F FOG
NORTH PHILA    HVY RAIN  56  54  93 E15G24    29.65F FOG
BLUE BELL*     CLOUDY    52  52 100 E13G23    29.63S
DOYLESTOWN     LGT RAIN  54  32  43 VRB5      29.63F
QUAKERTOWN*    CLOUDY    54  54 100 E9        29.64S
PERKASIE*      CLOUDY    54  54 100 E10G18    29.64S FOG
POTTSTOWN      HVY RAIN  54  53  97 E9G18     29.62F FOG
LANCASTER      LGT RAIN  56  55  97 E18G24    29.55F FOG
COATESVILLE    LGT RAIN  54  54 100 E15G22    29.60F
READING        LGT RAIN  56  55  97 E9        29.59R
ALLENTOWN      LGT RAIN  57  53  86 E14       29.65S
MOUNT POCONO   LGT RAIN  50  50 100 E15       29.66F VSB 1/2
HAZLETON       CLOUDY    52  50  93 E14G26    29.64S
LEHIGHTON      CLOUDY    54  52  94 E7        29.64F
WILKES BARRE   CLOUDY    56  52  86 E8G18     29.63F

$$
DEZALL-MDZ008-012-015-019-020-251200-
DELAWARE AND EASTERN MARYLAND

CITY           SKY/WX    TMP DP  RH WIND       PRES   REMARKS
WILMINGTON     HVY RAIN  55  54  96 E17G25    29.59S FOG
DOVER          LGT RAIN  58  58 100 E13G18    29.55F FOG
GEORGETOWN     LGT RAIN  60  58  92 E9        29.56F FOG
EASTON         LGT RAIN  59  57  94 E9G17     29.55F FOG
ABERDEEN       LGT RAIN  55  55 100 E14       29.55F VSB 1/2
PATUXENT       CLOUDY    66  66 100 SE15G22   29.47F
OCEAN CITY     CLOUDY    61  60  97 E8        29.56F
WALLOPS ISLAND CLOUDY    64  64 100 S12       29.53F
CAMBRIDGE      CLOUDY    59  59 100 E9G16     29.50F FOG
SALISBURY      LGT RAIN  62  62 100 E9        29.53F FOG

$$
PAZ001-021-NYZ056-072-MDZ011-DCZ001-251200-
OTHER NEARBY LOCATIONS

CITY           SKY/WX    TMP DP  RH WIND       PRES   REMARKS
HARRISBURG     DRIZZLE   56  55  97 SE13      29.54F FOG
STATE COLLEGE  LGT RAIN  52  52 100 NE10      29.55S
WILLIAMSPORT   LGT RAIN  56  54  93 E10       29.56F FOG
BINGHAMTON     LGT RAIN  51  49  92 SE18G28   29.65F
NEW YORK CITY  LGT RAIN  56  55  97 E10G17    29.73F FOG
BALTIMORE      LGT RAIN  57  57 100 E17       29.51S FOG
WASHINGTON DC  HVY RAIN  59  58  96 E6        29.50S FOG

$$




USA.gov is the U.S. government's official web portal to all federal, state and local government web resources and services.